DateTimeUTC,F1_A11,F1_S11,BsB_S11,BsG_S11,BsR_S11,BbsB_S11,BbsG_S11,BbsR_S11,BaB_A11,BaG_A11,BaR_A11,Tu_S11,T_S11,Uu_S11,U_S11,P_S11,T1_A11
2021-09-29T03:00:00Z,00000200,21000000,,,,,,,0000.44,0000.05,0000.15,16.7,23.6,,00.0,0670.4,30.9
2021-09-29T03:01:00Z,00000200,21000000,,,,,,,-000.25,-000.06,0000.10,16.7,23.7,,00.0,0670.4,30.9
2021-09-29T03:02:00Z,00000200,21000000,,,,,,,-000.13,-000.10,-000.23,16.8,23.7,,00.0,0670.4,30.9
2021-09-29T03:03:00Z,00000200,61000000,,,,,,,0000.43,0000.46,0000.17,16.8,23.7,,00.0,0670.4,30.9
2021-09-29T03:04:00Z,00000200,41000000,0002.11,0001.40,0000.58,0000.20,0000.12,0000.16,0000.35,0000.81,0000.44,17.1,23.6,,00.0,0671.4,30.9
2021-09-29T03:05:00Z,00000200,01000000,0002.10,0001.62,0000.52,0000.18,0000.10,0000.28,0000.75,0000.32,0000.50,17.1,23.6,,00.0,0671.4,30.9
2021-09-29T03:06:00Z,00000200,01000000,0001.99,0001.26,0000.81,0000.43,0000.12,0000.06,0000.57,-000.08,0000.13,17.0,23.5,,00.0,0671.4,30.9
2021-09-29T03:07:00Z,00000200,01000000,0001.85,0001.68,0001.01,0000.37,0000.26,-000.12,0000.20,0000.47,0000.00,17.0,23.5,,00.0,0671.4,30.9
2021-09-29T03:08:00Z,00000200,01000000,0002.26,0001.58,0000.38,0000.71,0000.04,0000.20,0000.45,0000.57,0000.62,16.9,23.4,,00.0,0671.4,30.9
2021-09-29T03:09:00Z,00000200,01000000,0001.83,0000.96,0001.08,0000.68,0000.29,0000.24,0000.19,0000.37,0000.28,16.8,23.4,,00.0,0671.4,30.8
2021-09-29T03:10:00Z,00000200,01000000,0002.34,0001.45,0000.72,0000.49,0000.19,-000.11,0001.00,0000.65,0000.24,16.7,23.3,,00.0,0671.4,30.8
2021-09-29T03:11:00Z,00000200,01000000,0002.10,0001.76,0000.90,0000.38,0000.21,-000.13,0000.38,0000.11,0000.40,16.7,23.3,,00.0,0671.4,30.8
2021-09-29T03:12:00Z,00000200,01000000,0001.62,0001.36,0000.72,0000.26,0000.12,0000.08,0000.47,0000.87,0000.32,16.7,23.3,,00.0,0671.4,30.9
2021-09-29T03:13:00Z,00000200,01000000,0001.67,0001.94,0000.93,0000.51,-000.03,0000.20,0000.69,0000.66,0000.59,16.7,23.3,,00.0,0671.4,30.9
2021-09-29T03:14:00Z,00000200,01000000,0001.67,0001.57,0000.68,0000.39,0000.22,0000.33,0000.55,0000.20,0000.31,16.8,23.3,,00.0,0671.3,30.9
2021-09-29T03:15:00Z,00000200,01000000,0001.64,0001.63,0000.85,0000.00,0000.24,0000.27,0000.55,0000.57,0000.45,16.9,23.3,,00.0,0671.3,30.9
2021-09-29T03:16:00Z,00000200,01000000,0002.59,0001.64,0001.00,0001.10,0000.15,0000.02,0000.27,0000.62,0000.36,16.9,23.4,,00.0,0671.3,30.9
2021-09-29T03:17:00Z,00000200,01000000,0002.67,0001.73,0001.01,0000.15,0000.18,0000.48,0000.73,0000.53,0000.34,17.0,23.4,,00.0,0671.3,30.9
2021-09-29T03:18:00Z,00000200,01000000,0001.55,0001.72,0000.90,0000.11,0000.52,0000.19,0000.59,0000.37,0000.38,17.0,23.4,,00.0,0671.3,30.9
2021-09-29T03:19:00Z,00000200,01000000,0002.11,0001.77,0000.97,0000.56,0000.24,0000.37,0000.67,0000.58,0000.60,17.0,23.4,,00.0,0671.3,30.9
2021-09-29T03:20:00Z,00000200,01000000,0002.60,0002.02,0000.95,0000.04,0000.49,0000.02,0000.23,-000.03,0000.31,17.0,23.4,,00.0,0671.3,30.9
2021-09-29T03:21:00Z,00000200,01000000,0002.50,0001.52,0000.98,0000.24,0000.15,-000.06,0000.32,0000.68,-000.17,16.9,23.4,,00.0,0671.3,30.9
2021-09-29T03:22:00Z,00000200,01000000,0002.66,0001.65,0000.80,0000.24,0000.24,0000.03,0000.55,0000.17,0000.54,16.8,23.3,,00.0,0671.3,30.9
2021-09-29T03:23:00Z,00000200,01000000,0002.16,0001.80,0000.91,0000.87,0000.11,-000.04,0000.46,0000.41,0000.34,16.7,23.3,,00.0,0671.3,30.9
2021-09-29T03:24:00Z,00000200,01000000,0002.71,0001.91,0000.85,0001.22,-000.05,-000.06,0000.57,0000.73,0000.64,16.6,23.2,,00.0,0671.3,30.8
2021-09-29T03:25:00Z,00000200,01000000,0002.52,0001.89,0000.78,0001.09,0000.46,0000.11,0000.99,0000.62,0000.25,16.6,23.2,,00.0,0671.2,30.8
2021-09-29T03:26:00Z,00000200,01000000,0002.04,0001.68,0000.76,0000.58,0000.14,0000.08,0000.47,0000.79,0000.56,16.5,23.2,,00.0,0671.3,30.8
2021-09-29T03:27:00Z,00000200,01000000,0002.30,0002.00,0000.78,0000.19,0000.35,-000.06,0000.82,0000.58,0000.40,16.6,23.2,,00.0,0671.2,30.8
2021-09-29T03:28:00Z,00000200,01000000,0002.56,0001.89,0000.75,0000.49,-000.12,-000.01,0000.58,0000.64,0000.60,16.6,23.1,,00.0,0671.3,30.8
2021-09-29T03:29:00Z,00000200,01000000,0001.68,0001.59,0000.92,0000.51,0000.20,0000.07,0000.56,0000.39,0000.27,16.7,23.2,,00.0,0671.3,30.9
2021-09-29T03:30:00Z,00000200,01000000,0002.99,0001.66,0000.86,0000.78,0000.24,-000.06,0000.57,0000.62,0000.53,16.7,23.2,,00.0,0671.2,30.9
2021-09-29T03:31:00Z,00000200,01000000,0001.83,0001.98,0000.99,0000.41,0000.23,0000.17,0000.72,0000.60,0000.23,16.8,23.2,,00.0,0671.2,30.9
2021-09-29T03:32:00Z,00000200,01000000,0002.12,0001.39,0000.75,0000.36,0000.04,-000.01,0000.42,0000.47,0000.60,16.9,23.3,,00.0,0671.2,30.9
2021-09-29T03:33:00Z,00000200,01000000,0002.19,0001.73,0000.94,0000.68,0000.28,0000.13,0000.39,0000.30,0000.39,16.9,23.3,,00.0,0671.3,30.9
2021-09-29T03:34:00Z,00000200,01000000,0002.46,0001.84,0000.87,0000.51,-000.23,0000.38,0000.79,0000.65,0000.05,16.9,23.3,,00.0,0671.3,30.9
2021-09-29T03:35:00Z,00000200,01000000,0001.66,0001.36,0000.85,0000.46,0000.10,0000.07,0000.18,0000.65,0000.42,17.0,23.3,,00.0,0671.2,30.9
2021-09-29T03:36:00Z,00000200,01000000,0001.99,0001.87,0001.14,0001.19,0000.24,0000.30,0000.67,0000.51,0000.66,17.0,23.3,,00.0,0671.2,30.9
2021-09-29T03:37:00Z,00000200,01000000,0002.75,0001.44,0001.19,0000.01,0000.01,0000.10,0000.48,0000.31,0000.21,17.0,23.4,,00.0,0671.2,30.9
2021-09-29T03:38:00Z,00000200,01000000,0002.65,0001.58,0000.62,0000.92,-000.04,-000.00,0000.41,-000.03,0000.43,17.0,23.3,,00.0,0671.2,30.9
2021-09-29T03:39:00Z,00000200,01000000,0002.22,0001.83,0000.95,0000.46,0000.10,0000.07,0000.08,0000.18,-000.27,16.9,23.3,,00.0,0671.1,30.9
2021-09-29T03:40:00Z,00000200,01000000,0002.62,0002.01,0000.81,0001.00,0000.40,-000.08,0000.84,0000.91,0000.45,16.8,23.3,,00.0,0671.1,30.9
2021-09-29T03:41:00Z,00000200,01000000,0002.30,0001.62,0000.69,0000.88,0000.02,-000.03,0000.40,0000.62,0000.45,16.8,23.2,,00.0,0671.1,30.8
2021-09-29T03:42:00Z,00000200,01000000,0001.69,0001.76,0000.79,0000.23,0000.15,0000.05,0000.82,0000.44,0000.65,16.8,23.2,,00.0,0671.1,30.9
2021-09-29T03:43:00Z,00000200,01000000,0002.80,0001.95,0000.78,0000.28,0000.12,0000.44,0000.42,0001.17,0000.71,16.9,23.3,,00.0,0671.1,30.9
2021-09-29T03:44:00Z,00000200,01000000,0001.61,0001.69,0000.94,0000.88,0000.02,0000.00,0000.86,0000.33,-000.16,16.9,23.3,,00.0,0671.1,30.9
2021-09-29T03:45:00Z,00000200,01000000,0002.23,0001.53,0000.89,0000.33,0000.26,-000.13,0000.75,0000.44,0000.57,17.0,23.3,,00.0,0671.0,30.9
2021-09-29T03:46:00Z,00000200,01000000,0002.52,0001.78,0001.01,0000.43,-000.09,0000.06,0000.45,0000.58,0000.47,17.0,23.3,,00.0,0671.0,30.9
2021-09-29T03:47:00Z,00000200,01000000,0002.64,0001.51,0000.97,0000.75,0000.14,0000.09,0000.70,0000.60,0000.72,17.1,23.3,,00.0,0671.0,30.9
2021-09-29T03:48:00Z,00000200,01000000,0002.89,0001.78,0001.05,0000.46,0000.19,0000.12,0000.53,0000.41,0000.63,17.1,23.4,,00.0,0671.0,30.9
2021-09-29T03:49:00Z,00000200,01000000,0002.91,0001.68,0001.06,0001.12,0000.16,0000.17,0000.76,0000.47,0000.50,17.2,23.4,,00.0,0671.0,30.9
2021-09-29T03:50:00Z,00000200,01000000,0001.92,0001.89,0000.93,0000.89,0000.17,0000.40,0000.47,0000.60,0000.11,17.2,23.4,,00.0,0671.0,30.9
2021-09-29T03:51:00Z,00000200,01000000,0002.61,0001.72,0000.91,0000.46,0000.14,0000.24,0000.25,0000.46,0000.08,17.1,23.4,,00.0,0671.0,30.9
2021-09-29T03:52:00Z,00000200,01000000,0002.04,0001.78,0000.92,0000.63,-000.00,0000.15,0000.64,0000.27,0000.38,17.0,23.4,,00.0,0671.1,30.9
2021-09-29T03:53:00Z,00000200,01000000,0002.56,0001.61,0000.77,0000.47,0000.45,0000.04,0000.15,0000.18,0000.36,16.9,23.3,,00.0,0671.0,30.9
2021-09-29T03:54:00Z,00000200,01000000,0002.73,0001.50,0000.99,0000.57,-000.10,0000.33,0000.67,0000.48,0000.37,16.8,23.3,,00.0,0671.0,30.9
2021-09-29T03:55:00Z,00000200,01000000,0001.59,0001.89,0000.92,0000.54,0000.27,-000.23,0000.89,0000.68,0000.30,16.8,23.2,,00.0,0671.0,30.8
2021-09-29T03:56:00Z,00000200,01000000,0002.05,0001.78,0000.99,0000.86,0000.26,0000.14,0000.72,0000.65,0000.75,16.8,23.2,,00.0,0671.0,30.8
2021-09-29T03:57:00Z,00000200,41000000,,,,,,,-000.19,-000.23,-000.41,16.8,23.2,,00.0,0671.0,30.9
2021-09-29T03:58:00Z,00000200,61000000,,,,,,,-000.04,0000.12,0000.21,16.5,23.4,,00.0,0670.0,30.9
2021-09-29T03:59:00Z,00000200,21000000,,,,,,,0000.04,0000.42,0000.06,16.5,23.5,,00.0,0670.0,30.9
